Content
SEND FEEDBACK

Daily
Averages
Monthly
Summary
India

LUCKNOW, INDIA


Home > Asia > India
Elevation: 400 feet     Latitude: 26 45N     Longitude: 080 52E

WEATHER
 
SELECT A DAY
Number of Records: 126,429;   Date Range: 7/2/96 - 7/30/14
 
SHARE

PRINT THIS DATA

[ ← Previous Day ]
WEATHER ALMANAC - AUGUST 25, 2013
[ Next Day → ]
[ °C ]   °F
Weather ElementAverageHighLow
Temperature86 °F95 °F (1:00 pm) (2:30 pm)
Dewpoint78 °F82 °F (5:30 pm) (7:00 pm)
Humidity77.1 %97 % (11:30 pm)55 % (2:30 pm)
Barometer29.52 in29.59 in (7:30 am)29.44 in (4:30 pm)
Wind Speed2.9 mph5.8 mph (5:30 pm)
Weather ElementAverage
Visibility2.6 mi
Wind DirectionE (91.1 °)

Weather ElementTotal
Precipitation---
Heating Degree Days17.5 (Base 65)
Averaged from 41 records on August 25, 2013
WEATHER CONDITIONS BREAKOUT
WIND DIRECTION BREAKOUT
WEATHER BY HOUR - AUGUST 25, 2013
[ °C ]   °F
Local TimeTemperatureDewpointHumidityBarometerVisibilityWind DirectionWind SpeedGust SpeedPrecipitationEventsConditions
1:00 AM84.2 °F78.8 °F84 %29.56 in2.5 miVariable2.3 mphHaze
2:00 AM84.2 °F78.8 °F84 %29.56 in2.5 miVariable2.3 mphHaze
2:30 AM82.0 °F79.0 °F89 %29.56 in2.0 mi°2.3 mphHaze
3:00 AM82.4 °F78.8 °F89 %29.56 in1.9 miVariable2.3 mphHaze
4:00 AM82.4 °F78.8 °F89 %29.53 in1.9 miVariable2.3 mphHaze
5:00 AM82.4 °F78.8 °F89 %29.53 in1.9 miVariable2.3 mphHaze
5:30 AM80.6 °F78.8 °F94 %29.56 in1.9 miVariable2.3 mphHaze
6:00 AM80.6 °F78.8 °F94 %29.56 in1.9 miVariable2.3 mphHaze
6:30 AM80.6 °F78.8 °F94 %29.56 in1.9 miVariable2.3 mphHaze
7:00 AM82.4 °F80.6 °F94 %29.56 in2.5 miVariable2.3 mphHaze
7:30 AM84.2 °F80.6 °F89 %29.59 in2.5 miVariable2.3 mphHaze
8:00 AM84.2 °F80.6 °F89 %29.59 in2.5 miSW (230°)3.5 mphHaze
9:30 AM89.6 °F80.6 °F75 %29.59 in3.1 miCalmHaze
10:00 AM91.4 °F80.6 °F71 %29.59 in3.1 miVariable2.3 mphHaze
10:30 AM91.4 °F80.6 °F71 %29.59 in3.1 miVariable2.3 mphHaze
11:00 AM91.4 °F80.6 °F71 %29.56 in3.1 miVariable2.3 mphHaze
11:30 AM93.2 °F80.6 °F67 %29.56 in3.1 miESE (110°)3.5 mphHaze
12:00 PM93.2 °F80.6 °F67 %29.56 in3.1 miSSW (210°)3.5 mphHaze
12:30 PM93.2 °F80.6 °F67 %29.53 in3.1 miSW (220°)3.5 mphHaze
1:00 PM95.0 °F80.6 °F63 %29.53 in3.1 miSSW (210°)3.5 mphHaze
1:30 PM95.0 °F80.6 °F63 %29.50 in3.1 miWSW (250°)4.6 mphHaze
2:00 PM95.0 °F80.6 °F63 %29.50 in3.1 miWSW (250°)4.6 mphHaze
2:30 PM93.0 °F79.0 °F55 %29.50 in2.0 mi°2.3 mphHaze
2:30 PM0.0 °F0.0 °F29.50 in3.1 miVariable2.3 mphHaze
3:00 PM93.2 °F78.8 °F63 %29.47 in3.1 miVariable2.3 mphHaze
3:30 PM93.2 °F80.6 °F67 %29.47 in3.1 miWSW (240°)3.5 mphHaze
4:00 PM93.2 °F80.6 °F67 %29.47 in3.1 miVariable2.3 mphHaze
4:30 PM93.2 °F80.6 °F67 %29.44 in3.1 miWest (260°)3.5 mphHaze
5:00 PM93.2 °F80.6 °F67 %29.44 in3.1 miWest (260°)3.5 mphHaze
5:30 PM87.0 °F82.0 °F79 %29.44 in1.0 miESE (110°)4.6 mphHaze
5:30 PM93.2 °F78.8 °F63 %29.44 in3.1 miWest (270°)5.8 mphHaze
6:00 PM91.4 °F78.8 °F66 %29.44 in3.1 miWest (260°)5.8 mphHaze
6:30 PM89.6 °F78.8 °F70 %29.44 in3.1 miWSW (250°)4.6 mphHaze
7:00 PM89.6 °F78.8 °F70 %29.47 in3.1 miWSW (240°)3.5 mphHaze
7:30 PM87.8 °F78.8 °F75 %29.47 in3.1 miVariable2.3 mphHaze
8:00 PM87.8 °F80.6 °F79 %29.47 in2.5 miVariable2.3 mphHaze
8:30 PM86.0 °F81.0 °F81 %29.49 in2.0 mi°2.3 mphHaze
8:30 PM86.0 °F80.6 °F84 %29.50 in2.5 miVariable2.3 mphHaze
10:00 PM84.2 °F80.6 °F89 %29.53 in2.5 miVariable2.3 mphHaze
11:00 PM84.2 °F80.6 °F89 %29.53 in2.5 miVariable2.3 mphHaze
11:30 PM82.0 °F81.0 °F97 %29.53 in2.0 mi°2.3 mphHaze
Hourly data recorded from VILK, located miles away from Lucknow, India







STORIES FROM OUR PARTNERS